FLOCK 3P-69

Last updated on Wed Feb 14 2018 16:20:32 GMT+0000 (Coordinated Universal Time)

1 42020U 17008CA 18045.42484864 .00001542 00000-0 66785-4 0 9990 2 42020 97.4685 111.1079 0009746 72.0167 288.2132 15.23905793 54131
UTC large
Height (km)
Speed (km/s)
/
Latitude / Longitude
Inclination (degrees)
Orbital Period (minutes)
Azimuth
Elevation
Range (km)
Doppler Factor

Next 0 passes for location: London (51.5072 / 0.1276)

Sorry there are no passes over London.